Location: Jenkins
(37.8542°N, 88.9276°W)
Time: 23:20:11
(UTC+00:00)

Daily predictions for brighter satellites

Satellite Brightness Start Highest point End
(mag) Time Altitude Azimuth Time Altitude Azimuth Time Altitude Azimuth
SJ-7 4.4 12:00:31 10° N 12:04:39 64° WNW 12:08:41 10° SSW
STARLINK-27 4.2 12:01:12 10° WSW 12:05:05 39° NW 12:08:59 10° NE
Cosmos 1980 Rocket 3.9 12:04:12 10° WNW 12:06:37 13° W 12:09:03 10° WSW
STARLINK-74 4.2 12:02:55 10° WSW 12:06:47 38° NW 12:10:40 10° NE
Cosmos 2233 Rocket 4.0 12:01:55 10° S 12:08:10 84° W 12:14:31 10° N
STARLINK-39 4.3 12:04:37 10° WSW 12:08:28 37° NW 12:12:20 10° NE
SL-4 R/B 3.4 12:04:43 10° NW 12:09:19 40° NNE 12:13:48 10° E
STARLINK 4.3 12:06:15 10° WSW 12:10:05 36° NW 12:13:56 10° NE
STARLINK-42 4.4 12:07:07 10° W 12:10:55 34° NNW 12:14:43 10° NNE
Cosmos 2322 Rocket 2.4 12:05:40 10° NNW 12:11:10 53° WSW 12:16:38 10° S
IRS-1C Rocket 4.1 23:06:40 10° SSE 23:11:55 72° ENE 23:17:11 10° N
Sich 1 3.9 23:09:05 10° NNE 23:12:54 29° ENE 23:16:44 10° SE
COSMO-SKYMED 1 3.7 23:11:45 10° NE 23:15:15 23° E 23:18:42 10° SSE
Lacrosse 4 Rocket 1.7 23:11:27 10° S 23:15:23 47° ESE 23:19:18 10° NE
Meteor 2-20 4.4 23:11:41 10° S 23:17:45 73° E 23:23:53 10° NNE
Cosmos 2219 3.2 23:13:43 10° NNW 23:19:22 80° ENE 23:24:59 10° SSE
H-2A R/B 2.7 23:18:57 10° SSE 23:22:45 62° ENE 23:26:32 10° N
CZ-4 R/B 2.8 23:20:12 10° ESE 23:23:02 18° ENE 23:25:52 10° NNE
CORIOLIS 4.1 23:20:06 10° SSE 23:25:26 67° ENE 23:30:50 10° N
COBE Rocket 3.8 23:22:29 10° NNE 23:27:14 66° E 23:31:51 10° S
Cosmos 1980 Rocket 3.2 23:23:49 10° SSE 23:28:25 26° ESE 23:33:05 10° NE
Cosmos 2221 4.1 23:24:48 10° SSW 23:28:48 38° WNW 23:32:51 10° N
NOSS 2-3 (C) 3.9 23:25:28 10° SSW 23:29:33 50° ESE 23:34:08 10° NE
CZ-3C R/B 4.1 23:26:48 10° SW 23:29:36 13° SSW 23:31:51 10° S
Cosmos 1464 Rocket 4.2 23:25:00 10° N 23:30:50 44° ENE 23:36:37 10° SSE
Cosmos 923 Rocket 4.0 23:30:45 10° S 23:35:53 61° ESE 23:41:02 10° NNE
Cosmos 2297 Rocket 2.1 23:31:19 10° NNW 23:36:59 73° ENE 23:42:37 10° SSE
Cosmos 2227 Rocket 2.2 23:31:27 10° NNW 23:37:06 68° ENE 23:42:43 10° SSE
Cosmos 1607 3.9 23:31:42 10° NNW 23:37:56 77° ENE 23:44:14 10° SE
YAOGAN 1 3.7 23:34:49 10° ESE 23:38:05 21° ENE 23:41:21 10° NNE
Cosmos 1072 Rocket 4.5 23:34:36 10° N 23:40:39 58° E 23:46:45 10° SSE
SMAP 3.9 23:45:06 10° S 23:49:38 55° W 23:54:14 10° NNW
FengYun 1-2 T 4.4 23:44:49 10° SE 23:50:07 50° ENE 23:55:24 10° N
CZ-3 Stage 3 3.6 23:49:07 10° SW 23:50:31 14° S 23:51:39 10° SSE
Cosmos 1633 2.4 23:48:48 10° N 23:52:26 65° E 23:56:01 10° SSE
Cosmos 2369 3.7 23:46:50 10° SSW 23:52:29 89° ESE 23:58:13 10° NNE
Cosmos 2263 Rocket 4.1 23:55:19 10° NNE 23:56:07 11° NE 23:56:07 11° NE
